Regional Weather Roundup
Issued by NWS Northern Indiana

Home | Current Version | Previous Version | Graphics & Text | Print | Product List | Glossary On
Versions: 1 2 3 4 5 6 7 8 9 10 11 12 13 14 15 16 17 18 19 20 21 22 23 24 25 26 27 28 29 30 31 32 33 34 35 36 37 38 39 40 41 42 43 44 45 46 47 48 49 50
000
ASUS43 KIWX 210210
RWRIWX

KIWX WEATHER ROUNDUP
NATIONAL WEATHER SERVICE NORTHERN INDIANA
900 PM EST FRI JAN 20 2017

NOTE: "FAIR" INDICATES FEW OR NO CLOUDS BELOW 12,000 FEET WITH NO
SIGNIFICANT WEATHER AND/OR OBSTRUCTIONS TO VISIBILITY.

* THESE STATIONS ARE NOT UNDER NWS QUALITY CONTROL. THEY ALSO MAY NOT
  REPORT WEATHER SUCH AS PRECIPITATION OR FOG.

INZ001>027-210300-
NORTHERN INDIANA

CITY           SKY/WX    TMP DP  RH WIND       PRES   REMARKS
GARY*          CLOUDY    46  46 100 VRB5      29.66F FOG
VALPARAISO     CLOUDY    47  47 100 SE6       29.68R FOG
LAPORTE*       FOG       43  43 100 E3        29.68S VSB 1/2
KNOX*          CLOUDY    45  39  81 SE6       29.68S
SOUTH BEND     CLOUDY    44  44 100 SE5       29.69F
ELKHART*       CLOUDY    45  45 100 S5        29.70F FOG
GOSHEN         CLOUDY    46  43  89 S6        29.70S
ROCHESTER*     MOCLDY    46  46 100 CALM      29.70S FOG
WARSAW*        CLOUDY    45  43  93 E5        29.70S FOG
FORT WAYNE     CLOUDY    48  45  89 E3        29.73S
PERU/GRISSOM   CLOUDY    48  48 100 SE6       29.68S
MARION*        CLOUDY    48  46  93 SE8       29.71F

$$
INZ028>050-210300-
CENTRAL INDIANA

CITY           SKY/WX    TMP DP  RH WIND       PRES   REMARKS
LAFAYETTE      CLOUDY    49  47  93 E6        29.67S
KOKOMO*        CLOUDY    48  46  93 SE6       29.71S
MUNCIE*        CLOUDY    53  47  79 SE7       29.71F
INDIANAPOLIS   CLOUDY    53  48  83 SE9       29.70R

$$
MIZ043>046-050>051-056>058-064>065-071>073-077>080-210300-
SOUTHWEST LOWER MICHIGAN

CITY           SKY/WX    TMP DP  RH WIND       PRES   REMARKS
BATTLE CREEK   CLOUDY    40  40 100 S6        29.71F FOG
BENTON HARBOR  FOG       43  41  93 SE6       29.68S VSB 3/4
COLDWATER*     FOG       42  42 100 CALM      29.72S VSB 1/4
HILLSDALE*     FOG       41  41 100 S3        29.71F VSB 1/4
HOLLAND        CLOUDY    38  37  97 SE5       29.70F
GRAND RAPIDS   FOG       35  34  96 E6        29.70F VSB 1/2 WCI  30
KALAMAZOO      FOG       41  39  93 S3        29.71S VSB 1/2
STURGIS*       FOG       43  43 100 SE3       29.70F VSB 3/4
THREE RIVERS*  FOG       42  42 100 CALM      29.71S VSB 1/2

$$
OHZ001>008-015>018-024>025-210300-
NORTHWEST OHIO

CITY           SKY/WX    TMP DP  RH WIND       PRES   REMARKS
DEFIANCE       CLOUDY    46  45  96 S3        29.74F
FINDLAY        CLOUDY    50  47  89 CALM      29.75R
TOLEDO EXPRESS CLOUDY    46  46 100 S6        29.75S FOG
TOLEDO METCALF CLOUDY    47  47 100 S5        29.76S FOG
LIMA           CLOUDY    49  48  97 S5        29.74F

$$
AND FOR LAKE MICHIGAN COASTAL AND OPEN LAKE BUOY OBSERVATIONS

STATION/POSITION TEMP    WIND        PRES    VSBY  WAVE
                 AIR SEA DIR/SP/G                  HT/PER
                 (F)     (DEG/KT/KT) (MB)    (MI)  (FT/S)
CALUMET HARBOR    36     110/  1/  2 1003.9F
MICHIGAN CITY     47     130/  7/  8   N/A
BURNS HARBOR      48     160/  9/ 15 1005.4

$$
&&



USA.gov is the U.S. government's official web portal to all federal, state and local government web resources and services.